[[{"header":{"parameterUnit":"m.s-1","parameterCategory":2,"la1":30.2992,"la2":30.254,"lo1":-89.0895,"lo2":-89.0443,"dy":0.0025,"dx":0.0025,"nx":19,"ny":19,"refTime":"2026-04-05T03:00:00:Z","depth":"0","parameterNumber":2,"parameterNumberName":"U-component_of_CURRENTS"},"data":[0,0,0,0.2353,0.2355,0.2451,0.2451,0.2577,0.2578,0,0,0,0,0,0,0,0,0,0,0,0.2316,0.2316,0.2353,0.2355,0.2451,0.2451,0.2576,0.2578,0,0,0,0,0,0,0,0,0,0,0,0.2315,0.2316,0.2317,0.2355,0.2451,0.2451,0.2576,0.2503,0,0,0,0,0,0,0,0,0,0,0.241,0.2375,0.2316,0.2317,0.2356,0.2451,0.2451,0.25,0.2508,0.2533,0,0.2547,0,0.2567,0.2586,0.2586,0,0,0,0.2356,0.2368,0.2395,0.2317,0.2357,0.245,0.2408,0.2504,0.2514,0.2544,0.2549,0.2554,0.2569,0.2587,0.2587,0.2716,0.2716,0,0,0.2351,0.2334,0.2389,0.24,0.2381,0.2405,0.2411,0.251,0.2518,0.2549,0.2557,0.2572,0.2588,0.2589,0.2715,0.2716,0,0,0,0.2335,0.233,0.2355,0.2395,0.2414,0.2408,0.2415,0.2514,0.2522,0.2558,0.2573,0.2588,0.259,0.2715,0.2715,0.2733,0,0,0,0.2332,0.2321,0.2353,0.2344,0.2412,0.2465,0.2416,0.2515,0.2527,0.2572,0.2588,0.2591,0.2714,0.2715,0.2732,0.2739,0,0,0,0.2311,0.2319,0.233,0.2342,0.2384,0.2464,0.2478,0.2518,0.2537,0.2587,0.2591,0.2714,0.2715,0.273,0.2736,0.2738,0,0,0,0.2292,0.2313,0.2329,0.237,0.2383,0.248,0.2478,0.2556,0.2604,0.2589,0.2714,0.2715,0.273,0.2735,0.2737,0.2689,0.269,0,0,0.2306,0.2314,0.2341,0.2359,0.244,0.2467,0.2559,0.2614,0.2625,0.2681,0.2684,0.2732,0.2736,0.2738,0.2754,0.2753,0,0,0,0.234,0.2354,0.2386,0.2435,0.2507,0.257,0.263,0.265,0.2698,0.2658,0.275,0.2753,0.2752,0.2722,0.2722,0.268,0.2721,0.272,0.272,0.2316,0.2366,0.2415,0.2484,0.2556,0.2654,0.2701,0.2737,0.2749,0.2766,0.278,0.2813,0.2782,0.2781,0.2739,0.2796,0.2796,0.2796,0.2796,0.2324,0.2342,0.2425,0.2482,0.257,0.2653,0.2766,0.2783,0.2824,0.2815,0.2813,0.2759,0.2781,0.2737,0.2798,0.2798,0.2798,0.2797,0.2797,0.2279,0.2293,0.2334,0.2424,0.2523,0.2647,0.2725,0.2805,0.2837,0.2853,0.2805,0.2804,0.2751,0.2846,0.2846,0.2846,0.2846,0.2846,0.2846,0.2199,0.2247,0.2267,0.2372,0.2422,0.2542,0.2695,0.2739,0.2805,0.2824,0.2824,0.276,0.2827,0.2809,0.2847,0.2847,0.2847,0.2847,0.2847,0.2139,0.2151,0.2181,0.2213,0.2329,0.2368,0.2541,0.2639,0.2705,0.2722,0.2733,0.2804,0.279,0.2789,0.2771,0.2796,0.2796,0.2796,0.2796,0.2075,0.2094,0.2096,0.2122,0.2186,0.2286,0.2273,0.2401,0.257,0.2621,0.2691,0.2665,0.2669,0.2646,0.2649,0.2627,0.2616,0.2616,0.2615,0.2036,0.2048,0.2016,0.2047,0.2108,0.215,0.2089,0.2133,0.2412,0.2606,0.2644,0.2651,0.2613,0.2622,0.2586,0.2593,0.2557,0,0]},{"header":{"parameterUnit":"m.s-1","parameterCategory":2,"la1":30.2992,"la2":30.254,"lo1":-89.0895,"lo2":-89.0443,"dy":0.0025,"dx":0.0025,"nx":19,"ny":19,"refTime":"2026-04-05T03:00:00:Z","depth":"0","parameterNumber":3,"parameterNumberName":"V-component_of_CURRENTS"},"data":[0,0,0,0.0298,0.0297,0.0282,0.0282,0.0268,0.0267,0,0,0,0,0,0,0,0,0,0,0,0.0305,0.0305,0.0298,0.0297,0.0282,0.0282,0.0268,0.0267,0,0,0,0,0,0,0,0,0,0,0,0.0305,0.0305,0.0305,0.0297,0.0282,0.0282,0.0268,0.0277,0,0,0,0,0,0,0,0,0,0,0.0291,0.0298,0.0305,0.0305,0.0297,0.0282,0.0282,0.0278,0.0277,0.0277,0,0.0277,0,0.0272,0.0267,0.0267,0,0,0,0.0295,0.0298,0.0295,0.0305,0.0297,0.0282,0.0288,0.0277,0.0276,0.0275,0.0277,0.0277,0.0272,0.0267,0.0267,0.0306,0.0307,0,0,0.0296,0.03,0.0296,0.0295,0.0298,0.0289,0.0288,0.0276,0.0277,0.0277,0.0276,0.0272,0.0267,0.0267,0.0306,0.0306,0,0,0,0.03,0.0301,0.0298,0.0295,0.0292,0.0288,0.0287,0.0277,0.0276,0.0276,0.0272,0.0267,0.0266,0.0305,0.0306,0.0402,0,0,0,0.03,0.0304,0.0299,0.0301,0.0293,0.0284,0.0288,0.0277,0.0276,0.0272,0.0267,0.0266,0.0305,0.0306,0.0398,0.0456,0,0,0,0.0305,0.0304,0.0304,0.0301,0.0296,0.0284,0.0282,0.0277,0.0273,0.0267,0.0266,0.0304,0.0305,0.0395,0.045,0.0481,0,0,0,0.0308,0.0329,0.0304,0.0333,0.0296,0.0333,0.0282,0.0298,0.0299,0.0267,0.0305,0.0306,0.0394,0.0446,0.0478,0.0541,0.0564,0,0,0.0342,0.0333,0.0354,0.0332,0.0385,0.0335,0.0393,0.0362,0.0315,0.0307,0.0308,0.04,0.0449,0.0481,0.061,0.0631,0,0,0,0.037,0.0388,0.04,0.0422,0.0431,0.0461,0.0424,0.0407,0.0394,0.032,0.0397,0.0425,0.0442,0.0472,0.0489,0.0406,0.0311,0.0311,0.0311,0.0425,0.0437,0.0489,0.0511,0.0537,0.0546,0.0559,0.0528,0.0468,0.0472,0.0501,0.0591,0.0625,0.0638,0.0552,0.0489,0.049,0.049,0.049,0.0503,0.054,0.0563,0.0615,0.0644,0.069,0.0695,0.066,0.0655,0.0588,0.0598,0.057,0.0662,0.0563,0.0496,0.0495,0.0495,0.0494,0.0494,0.0545,0.0568,0.0594,0.0678,0.076,0.0793,0.0879,0.0844,0.0758,0.0773,0.0767,0.0765,0.0679,0.0765,0.0765,0.0766,0.0766,0.0766,0.0766,0.0579,0.0611,0.0675,0.0757,0.0828,0.0937,0.0987,0.0997,0.0962,0.089,0.0889,0.0711,0.0674,0.0663,0.0773,0.0772,0.0771,0.077,0.077,0.0642,0.0648,0.0754,0.0823,0.0994,0.1142,0.1171,0.1209,0.1168,0.116,0.0913,0.0936,0.0908,0.0894,0.0888,0.1049,0.1049,0.1049,0.1049,0.0678,0.0691,0.0832,0.0961,0.1121,0.1245,0.1396,0.1402,0.1214,0.1088,0.0979,0.092,0.0913,0.0879,0.0865,0.0855,0.1004,0.1004,0.1003,0.0728,0.0768,0.0872,0.0994,0.1183,0.1357,0.1512,0.1565,0.1252,0.0988,0.0854,0.0856,0.0749,0.0744,0.0669,0.0657,0.0632,0,0]}],[{"header":{"parameterUnit":"m.s-1","parameterCategory":2,"la1":30.2992,"la2":30.254,"lo1":-89.0895,"lo2":-89.0443,"dy":0.0025,"dx":0.0025,"nx":19,"ny":19,"refTime":"2026-04-05T03:00:00:Z","depth":"2","parameterNumber":2,"parameterNumberName":"U-component_of_CURRENTS"},"data":[0,0,0,0.2142,0.2143,0.2211,0.2211,0.2311,0.2312,0,0,0,0,0,0,0,0,0,0,0,0.2119,0.212,0.2142,0.2143,0.2211,0.2211,0.2311,0.2312,0,0,0,0,0,0,0,0,0,0,0,0.2119,0.212,0.212,0.2144,0.2211,0.2211,0.2311,0.2257,0,0,0,0,0,0,0,0,0,0,0.219,0.2168,0.212,0.212,0.2144,0.2211,0.2211,0.2255,0.2261,0.2284,0,0.2295,0,0.2306,0.2319,0.2319,0,0,0,0.2146,0.2162,0.2179,0.212,0.2145,0.221,0.2181,0.2258,0.2265,0.2292,0.2297,0.23,0.2308,0.232,0.232,0.2434,0.2434,0,0,0.2142,0.2134,0.2175,0.2184,0.2164,0.2179,0.2183,0.2262,0.2271,0.2297,0.2303,0.2309,0.232,0.2321,0.2433,0.2434,0,0,0,0.213,0.2132,0.2147,0.218,0.2191,0.2181,0.2186,0.2267,0.2272,0.2304,0.231,0.2321,0.2322,0.2433,0.2434,0.2456,0,0,0,0.2128,0.2124,0.2145,0.2141,0.2189,0.2228,0.2189,0.2267,0.2276,0.231,0.2321,0.2323,0.2432,0.2433,0.2454,0.2468,0,0,0,0.2116,0.2123,0.2131,0.2141,0.2168,0.2227,0.2237,0.2269,0.228,0.232,0.2324,0.2432,0.2433,0.2453,0.2466,0.2481,0,0,0,0.2106,0.212,0.2131,0.2157,0.2168,0.223,0.2236,0.2291,0.2328,0.2322,0.2432,0.2434,0.2452,0.2464,0.2479,0.2411,0.2413,0,0,0.2116,0.2121,0.2138,0.2149,0.2196,0.222,0.2287,0.2336,0.2352,0.2407,0.2409,0.2455,0.2465,0.248,0.2477,0.2477,0,0,0,0.2136,0.2145,0.2163,0.2194,0.224,0.2291,0.2338,0.2366,0.2423,0.2379,0.2472,0.2478,0.2486,0.2443,0.2443,0.2439,0.2439,0.2439,0.2439,0.2123,0.2152,0.2181,0.2223,0.2274,0.2352,0.2399,0.2447,0.2457,0.2487,0.2509,0.2554,0.2508,0.2508,0.2521,0.2521,0.2521,0.2521,0.2521,0.212,0.2127,0.2186,0.2222,0.2292,0.2361,0.2465,0.2492,0.2557,0.2549,0.2555,0.2484,0.2509,0.2523,0.2523,0.2523,0.2522,0.2522,0.2522,0.2083,0.2091,0.2121,0.2184,0.227,0.2371,0.245,0.2533,0.258,0.2604,0.2551,0.255,0.2557,0.2606,0.2606,0.2607,0.2607,0.2607,0.2607,0.2023,0.2056,0.2071,0.2151,0.2194,0.2299,0.2444,0.2492,0.2558,0.2579,0.2578,0.2582,0.258,0.2562,0.2609,0.2609,0.2608,0.2608,0.2608,0.197,0.1986,0.2001,0.2028,0.212,0.2145,0.2304,0.2395,0.2472,0.2486,0.2558,0.2558,0.2544,0.2542,0.2525,0.2559,0.2559,0.2559,0.2559,0.1922,0.1936,0.1928,0.1942,0.1989,0.2068,0.2048,0.2133,0.2298,0.2349,0.2358,0.2308,0.2315,0.2285,0.229,0.2265,0.2232,0.2232,0.2231,0.1887,0.1893,0.1859,0.1875,0.1914,0.194,0.1864,0.1821,0.198,0.2214,0.2263,0.2545,0.2494,0.2497,0.2468,0.2468,0.2437,0,0]},{"header":{"parameterUnit":"m.s-1","parameterCategory":2,"la1":30.2992,"la2":30.254,"lo1":-89.0895,"lo2":-89.0443,"dy":0.0025,"dx":0.0025,"nx":19,"ny":19,"refTime":"2026-04-05T03:00:00:Z","depth":"2","parameterNumber":3,"parameterNumberName":"V-component_of_CURRENTS"},"data":[0,0,0,0.0168,0.0167,0.015,0.015,0.0135,0.0135,0,0,0,0,0,0,0,0,0,0,0,0.0177,0.0177,0.0168,0.0167,0.015,0.015,0.0135,0.0135,0,0,0,0,0,0,0,0,0,0,0,0.0177,0.0177,0.0177,0.0167,0.015,0.015,0.0135,0.0146,0,0,0,0,0,0,0,0,0,0,0.0161,0.0169,0.0177,0.0177,0.0167,0.015,0.015,0.0146,0.0145,0.0146,0,0.0147,0,0.014,0.0134,0.0134,0,0,0,0.0165,0.017,0.0166,0.0177,0.0167,0.015,0.0157,0.0145,0.0144,0.0144,0.0146,0.0146,0.014,0.0134,0.0134,0.0167,0.0168,0,0,0.0166,0.0172,0.0167,0.0165,0.0168,0.0158,0.0157,0.0144,0.0146,0.0146,0.0145,0.014,0.0134,0.0134,0.0167,0.0167,0,0,0,0.017,0.0173,0.0168,0.0166,0.0162,0.0157,0.0156,0.0146,0.0145,0.0145,0.014,0.0134,0.0134,0.0166,0.0167,0.0253,0,0,0,0.0171,0.0176,0.0169,0.0172,0.0163,0.0153,0.0158,0.0146,0.0144,0.014,0.0134,0.0134,0.0166,0.0167,0.0249,0.03,0,0,0,0.0176,0.0176,0.0176,0.0173,0.0166,0.0153,0.0151,0.0145,0.0141,0.0134,0.0134,0.0165,0.0166,0.0246,0.0294,0.032,0,0,0,0.0181,0.02,0.0176,0.0201,0.0166,0.0194,0.0151,0.0161,0.0161,0.0134,0.0166,0.0167,0.0246,0.029,0.0316,0.0356,0.0374,0,0,0.0211,0.0203,0.0221,0.0199,0.0241,0.0196,0.0243,0.0215,0.0175,0.0169,0.0169,0.0251,0.0294,0.0319,0.0415,0.0431,0,0,0,0.0235,0.025,0.0259,0.0275,0.0279,0.0302,0.0268,0.0253,0.0243,0.0179,0.0247,0.0272,0.0285,0.0301,0.0315,0.0172,0.0172,0.0171,0.0171,0.0286,0.0294,0.0336,0.0352,0.037,0.0373,0.0383,0.0356,0.0306,0.031,0.0339,0.0416,0.0435,0.0445,0.0328,0.0328,0.0328,0.0329,0.0329,0.0355,0.0387,0.0401,0.0443,0.0463,0.05,0.05,0.0472,0.0469,0.0413,0.0421,0.0389,0.0465,0.0336,0.0334,0.0333,0.0333,0.0332,0.0332,0.0395,0.0415,0.0435,0.0504,0.0569,0.0592,0.0665,0.0636,0.056,0.0573,0.0557,0.0556,0.0466,0.0567,0.0568,0.0568,0.0568,0.0569,0.0569,0.043,0.0455,0.0511,0.0578,0.0636,0.0727,0.0765,0.077,0.073,0.0664,0.0663,0.0496,0.0488,0.0479,0.0574,0.0573,0.0573,0.0572,0.0572,0.0488,0.0494,0.0585,0.0643,0.0785,0.0908,0.0927,0.0943,0.0904,0.0888,0.07,0.0695,0.0668,0.0657,0.0651,0.0785,0.0785,0.0785,0.0785,0.0523,0.0534,0.0657,0.0764,0.0899,0.0997,0.1112,0.1085,0.0963,0.0854,0.0851,0.081,0.08,0.0776,0.0761,0.0755,0.0917,0.0917,0.0918,0.057,0.0602,0.0692,0.0794,0.095,0.1094,0.1204,0.1178,0.0978,0.092,0.085,0.0799,0.0726,0.0715,0.0663,0.0646,0.0631,0,0]}],[{"header":{"parameterUnit":"m.s-1","parameterCategory":2,"la1":30.2992,"la2":30.254,"lo1":-89.0895,"lo2":-89.0443,"dy":0.0025,"dx":0.0025,"nx":19,"ny":19,"refTime":"2026-04-05T03:00:00:Z","depth":"4","parameterNumber":2,"parameterNumberName":"U-component_of_CURRENTS"},"data":[0,0,0,0.148,0.1481,0.1556,0.1556,0.1658,0.1659,0,0,0,0,0,0,0,0,0,0,0,0.1465,0.1466,0.1479,0.1481,0.1556,0.1556,0.1658,0.1659,0,0,0,0,0,0,0,0,0,0,0,0.1465,0.1466,0.1467,0.1482,0.1556,0.1556,0.1658,0.16,0,0,0,0,0,0,0,0,0,0,0.1527,0.1518,0.1466,0.1467,0.1482,0.1556,0.1556,0.1597,0.1604,0.1626,0,0.1649,0,0.1652,0.1666,0.1666,0,0,0,0.1482,0.1512,0.1526,0.1467,0.1483,0.1556,0.1523,0.1601,0.1608,0.1634,0.165,0.1654,0.1654,0.1667,0.1667,0.1789,0.1789,0,0,0.1478,0.1484,0.1521,0.1531,0.1518,0.152,0.1525,0.1605,0.1624,0.1651,0.1656,0.1655,0.1667,0.1668,0.1788,0.1789,0,0,0,0.1466,0.1481,0.1493,0.1527,0.1538,0.1522,0.1528,0.162,0.1623,0.1657,0.1656,0.1668,0.1669,0.1788,0.1789,0.1821,0,0,0,0.1463,0.1473,0.1491,0.1496,0.1537,0.158,0.1541,0.1618,0.1626,0.1656,0.1668,0.167,0.1787,0.1788,0.1819,0.1841,0,0,0,0.1459,0.1473,0.1484,0.1496,0.1525,0.1579,0.1586,0.1619,0.1626,0.1666,0.167,0.1787,0.1788,0.1817,0.1837,0.1876,0,0,0,0.1456,0.1473,0.1485,0.1505,0.1525,0.1558,0.1586,0.1628,0.1663,0.1668,0.1787,0.1789,0.1816,0.1835,0.1874,0.1634,0,0,0,0.1466,0.1475,0.1482,0.1494,0.1512,0.1546,0.1597,0.1661,0.1693,0.176,0.1763,0.1819,0.1837,0.1876,0.1715,0,0,0,0,0.1475,0.1484,0.1491,0.1511,0.1537,0.1589,0.164,0.1688,0.1779,0.172,0.1838,0.1848,0.1872,0.1725,0.1795,0.1795,0.1795,0.1795,0.1794,0.148,0.1486,0.1499,0.1518,0.1554,0.1631,0.1694,0.1776,0.1794,0.1853,0.1888,0.1959,0.1806,0.1899,0.1899,0.1899,0.1899,0.1899,0.19,0.1466,0.1461,0.1504,0.1524,0.1588,0.1653,0.1773,0.1825,0.1947,0.1942,0.1962,0.1786,0.1903,0.1903,0.1902,0.1902,0.1901,0.1901,0.1901,0.1437,0.1436,0.1472,0.1519,0.16,0.1688,0.1786,0.1897,0.1985,0.2029,0.1883,0.1993,0.1976,0.2047,0.2047,0.2047,0.2048,0.2048,0.2048,0.1386,0.1417,0.1444,0.1512,0.1555,0.1653,0.1813,0.1875,0.198,0.1909,0.2052,0.2009,0.2004,0.1985,0.2052,0.2052,0.2051,0.2051,0.205,0.1322,0.1365,0.1385,0.1425,0.1505,0.1547,0.1719,0.1774,0.183,0.1819,0.1839,0.1848,0.1818,0.1818,0.1791,0.1803,0.18,0.1797,0,0.1283,0.1302,0.1321,0.1344,0.1369,0.147,0.1473,0.1565,0.1663,0.1609,0.1845,0.1865,0.187,0.1834,0.183,0.1796,0,0,0,0.1243,0.1256,0.1242,0.1275,0.1282,0.1337,0.1462,0.1441,0.1646,0.1619,0.1726,0.1745,0.1917,0.2065,0.2042,0.2036,0.2005,0,0]},{"header":{"parameterUnit":"m.s-1","parameterCategory":2,"la1":30.2992,"la2":30.254,"lo1":-89.0895,"lo2":-89.0443,"dy":0.0025,"dx":0.0025,"nx":19,"ny":19,"refTime":"2026-04-05T03:00:00:Z","depth":"4","parameterNumber":3,"parameterNumberName":"V-component_of_CURRENTS"},"data":[0,0,0,0.0128,0.0128,0.013,0.013,0.0135,0.0135,0,0,0,0,0,0,0,0,0,0,0,0.0132,0.0132,0.0128,0.0128,0.013,0.013,0.0135,0.0135,0,0,0,0,0,0,0,0,0,0,0,0.0132,0.0132,0.0132,0.0128,0.013,0.0131,0.0135,0.0133,0,0,0,0,0,0,0,0,0,0,0.013,0.0134,0.0132,0.0132,0.0128,0.013,0.0131,0.0133,0.0133,0.0133,0,0.0137,0,0.0133,0.0135,0.0135,0,0,0,0.0129,0.0133,0.0133,0.0132,0.0128,0.013,0.013,0.0133,0.0133,0.0134,0.0137,0.0137,0.0133,0.0135,0.0135,0.016,0.016,0,0,0.0129,0.0133,0.0133,0.0133,0.0133,0.013,0.013,0.0133,0.0136,0.0137,0.0137,0.0133,0.0135,0.0135,0.016,0.016,0,0,0,0.0128,0.0133,0.0132,0.0133,0.0132,0.013,0.013,0.0136,0.0135,0.0137,0.0133,0.0135,0.0135,0.0159,0.016,0.0221,0,0,0,0.0128,0.0132,0.0132,0.0134,0.0132,0.0134,0.0132,0.0135,0.0135,0.0133,0.0135,0.0135,0.0159,0.0159,0.0219,0.0254,0,0,0,0.0131,0.0132,0.0133,0.0134,0.0134,0.0133,0.0133,0.0135,0.0133,0.0135,0.0135,0.0159,0.0159,0.0217,0.025,0.0265,0,0,0,0.0133,0.0148,0.0133,0.0155,0.0134,0.0163,0.0133,0.015,0.0156,0.0135,0.0159,0.016,0.0216,0.0248,0.0262,0.0266,0,0,0,0.0155,0.0151,0.0166,0.0153,0.019,0.0162,0.0203,0.0191,0.0163,0.0157,0.0158,0.0219,0.025,0.0264,0.0301,0,0,0,0,0.0175,0.0188,0.0197,0.0214,0.0223,0.0245,0.0229,0.0217,0.021,0.0168,0.0214,0.0232,0.0239,0.0234,0.0163,0.0162,0.0162,0.0162,0.0162,0.021,0.022,0.0255,0.0272,0.0292,0.03,0.0309,0.0288,0.0256,0.0256,0.0278,0.0327,0.0324,0.0267,0.0267,0.0268,0.0268,0.0268,0.0268,0.0259,0.0284,0.0301,0.0338,0.0358,0.0391,0.0389,0.0369,0.0363,0.0326,0.0329,0.0295,0.0274,0.0273,0.0272,0.0272,0.0271,0.0271,0.027,0.0285,0.03,0.0322,0.0381,0.0435,0.0457,0.0505,0.0483,0.0427,0.0435,0.0408,0.0365,0.0363,0.0431,0.0431,0.0431,0.0431,0.0431,0.0432,0.0304,0.0328,0.0374,0.0432,0.0481,0.0549,0.0576,0.0572,0.0525,0.0485,0.0453,0.0381,0.0376,0.0372,0.0435,0.0435,0.0434,0.0434,0.0434,0.0337,0.0349,0.042,0.0468,0.0581,0.0628,0.0656,0.0633,0.0619,0.0578,0.0497,0.0493,0.0468,0.0461,0.0459,0.0551,0.0551,0.0551,0,0.0357,0.0368,0.0463,0.0545,0.0635,0.0677,0.0691,0.068,0.0605,0.059,0.0598,0.0507,0.0503,0.0475,0.0469,0.0467,0,0,0,0.0384,0.041,0.0475,0.0555,0.0655,0.0685,0.0697,0.0674,0.0621,0.061,0.0559,0.0557,0.0516,0.0446,0.0398,0.0392,0.0382,0,0]}]]